Regional Weather Roundup
Issued by NWS

Home | Current Version | Previous Version | Text Only | Print | Product List | Glossary Off
Versions: 1 2 3 4 5 6 7 8 9 10 11 12 13 14 15 16 17 18 19 20 21 22 23 24 25 26 27 28

000
ASUS45 KPSR 021410
RWRAZ

ARIZONA HOURLY REGIONAL WEATHER ROUNDUP
NATIONAL WEATHER SERVICE PHOENIX AZ
700 AM MST FRI DEC 02 2016

NOTE: FAIR INDICATES FEW OR NO CLOUDS BELOW 12,000 FEET WITH NO
SIGNIFICANT WEATHER AND/OR OBSTRUCTIONS TO VISIBILITY.

AZZ001>003-036-021500-
NORTHWEST ARIZONA

CITY           SKY/WX    TMP DP  RH WIND       PRES   REMARKS
BULLHEAD CITY  PTCLDY    54  19  26 N17G26    29.96R
KINGMAN        MOCLDY    36  18  48 NE8       29.95R WCI  30
$$

AZZ004>008-015-016-018-021500-
NORTH CENTRAL ARIZONA

CITY           SKY/WX    TMP DP  RH WIND       PRES   REMARKS
GRAND CANYON   CLOUDY    28  15  58 NE12      29.93R WCI  18
PRESCOTT       MOCLDY    29  23  78 CALM      29.90R
FLAGSTAFF      PTCLDY    25  13  60 E7        29.89R WCI  17
PAYSON         CLOUDY    36  19  51 NE3       29.92R
PAGE           PTCLDY    33  14  45 CALM      29.99R
$$

AZZ009>014-017-021500-
NORTHEAST ARIZONA

CITY           SKY/WX    TMP DP  RH WIND       PRES   REMARKS
WINSLOW        CLOUDY    31  19  61 CALM      29.95R
SAINT JOHNS    CLEAR     20  16  84 W5        29.90R WCI  13
WINDOW ROCK    CLOUDY    22  15  75 CALM      29.93R
SHOW LOW       PTCLDY    19  14  79 CALM      29.92S
$$

AZZ023-021500-
GREATER PHOENIX AREA

CITY           SKY/WX    TMP DP  RH WIND       PRES   REMARKS
PHOENIX        MOCLDY    47  30  51 E6        29.88R
BUCKEYE        CLOUDY    39  37  93 CALM      29.91R
GLENDALE       MOCLDY    45  36  70 CALM      29.91R
LUKE AFB       MOCLDY    44  35  71 NW6       29.89R
DEER VALLEY    MOCLDY    45  29  53 N3        29.88R
SCOTTSDALE     MOCLDY    45  32  60 CALM      29.89R
MESA-FALCON    MOCLDY   N/A N/A N/A NE6       29.87R
MESA-GATEWAY   CLOUDY    39  30  70 SE6       29.90R WCI  35
CHANDLER       MOCLDY    41  32  70 CALM      29.90R
$$

AZZ027-028-021500-
SOUTHWEST MARICOPA COUNTY AND PINAL COUNTY

CITY           SKY/WX    TMP DP  RH WIND       PRES   REMARKS
CASA GRANDE    NOT AVBL
GILA BEND      PTCLDY    44  25  46 N3        29.89R
$$

AZZ503-504-507>509-021500-
SOUTHEAST ARIZONA

CITY           SKY/WX    TMP DP  RH WIND       PRES   REMARKS
TUCSON         CLEAR     37  16  42 SE7       29.91S WCI  32
DAVIS-MONTHAN  PTCLDY    34  19  54 SE7       29.90R WCI  28
RYAN FIELD     CLEAR     32  19  59 CALM      29.92R
NOGALES        CLEAR     33   8  35 SW5       29.90S WCI  29
SIERRA VISTA   CLEAR     37  10  32 E6        29.91R WCI  32
DOUGLAS        CLEAR     30  12  47 NE3       29.92R
SAFFORD        CLEAR     31  21  66 E5        29.90R WCI  26
$$

AZZ020-021-025-026-031-021500-
SOUTHWEST ARIZONA

CITY           SKY/WX    TMP DP  RH WIND       PRES   REMARKS
YUMA           CLOUDY    51  29  42 CALM      29.90R
$$

CAZ031-033-041-043-047-048-061-021500-
SOUTHERN CALIFORNIA

CITY           SKY/WX    TMP DP  RH WIND       PRES   REMARKS
DOWNTOWN L.A.  CLEAR     56  21  25 N5        29.97R
L.A. AIRPORT   PTCLDY    56  22  26 NE3       29.98R
SAN DIEGO      MOCLDY    51  48  89 CALM      29.96R
BURBANK        CLEAR     51  20  29 S5        29.99R
ONTARIO        PTCLDY    53  17  24 NE18G33   29.97R
RIVERSIDE      PTCLDY    54  22  28 NE16G32   29.99R
PALM SPRINGS   MOCLDY    59  16  18 N14G24    29.99R
EL CENTRO NAS  CLOUDY    53  29  39 N6        29.93R
IMPERIAL       CLOUDY    50  31  48 NW3       29.91R
BLYTHE         MOCLDY    52  22  30 N12       29.92R
NEEDLES        MOCLDY    54  22  28 N22       29.94R
$$

NVZ020-UTZ003-021500-
SOUTHERN NEVADA-UTAH

CITY           SKY/WX    TMP DP  RH WIND       PRES   REMARKS
LAS VEGAS      PTCLDY    46  16  30 N20G28    30.03R
SALT LAKE CITY PTCLDY    26  23  88 CALM      30.17R
$$

NMZ009-TXZ055-021500-
NEW MEXICO-WEST TEXAS

CITY           SKY/WX    TMP DP  RH WIND       PRES   REMARKS
ALBUQUERQUE    CLOUDY    34  17  50 N9        29.97S WCI  27
EL PASO        PTCLDY    37  16  42 N7        29.93R WCI  32
$$


........................KEY........................
SKY/WX - SKY CONDITION/WEATHER
TMP    - TEMPERATURE IN FAHRENHEIT
DP     - DEW POINT IN FAHRENHEIT
RH     - RELATIVE HUMIDITY IN PERCENT
WIND   - DIRECTION AND SPEED IN MILES PER HOUR (MPH)
VRB    - VARIABLE WIND DIRECTION
PRES   - MEAN SEA LEVEL PRESSURE IN INCHES OF MERCURY
         F - FALLING PRESSURE   R - RISING PRESSURE
         S - STEADY PRESSURE
VSB    - VISIBILITY IN MILES
HX     - HEAT INDEX IN FAHRENHEIT
WCI    - WIND CHILL INDEX IN FAHRENHEIT
TC     - TEMPERATURE IN CELSIUS WHICH IS ALSO KNOWN AS
         TEMPERATURE IN CENTIGRADE
AFB    - AIR FORCE BASE
         LUKE AFB IS LUKE AIR FORCE BASE
         DAVIS-MONTHAN IS DAVIS-MONTHAN AIR FORCE BASE
NAS    - NAVAL AIR STATION
         EL CENTRO NAS IS EL CENTRO NAVAL AIR STATION
N/A    - NOT AVAILABLE





USA.gov is the U.S. government's official web portal to all federal, state and local government web resources and services.